User: anonymous   Login
Location: Unspecified
(0.0000°N, 0.0000°E)
Time: 21:46:36
(UTC+00:00)
Language:

PAZ - Orbit

View from above orbital plane
View from above orbital plane
View from above satellite
View from above satellite

Ground track
Ground track

The orbit data is extracted from the following two-line orbital elements,

1 43215U 18020A   18316.48800255 -.00000703  00000-0 -30271-4 0  9996
2 43215  97.4453 321.5961 0001704  78.7700  74.0256 15.19144203 39913
Epoch (UTC): 12 November 2018 11:42:43
Eccentricity: 0.0001704
inclination: 97.4453°
perigee height: 507 km
apogee height: 509 km
right ascension of ascending node: 321.5961°
argument of perigee: 78.7700°
revolutions per day: 15.19144203
mean anomaly at epoch: 74.0256°
orbit number at epoch: 3991

The dashed part of the orbit path shows where the satellite is in the earth's shadow,  

DLR